Simultaneous Nadir Overpasses (SNOs) Predictions

Prediction of SNOs between LANDSAT-8 and NOAA-19 Satellite Orbit:

Table of predicted SNOs for the next 14.0 days since TLE Epoch: 2/11/2023
Index Date (LANDSAT-8) Time (LANDSAT-8) Lat,Lon (LANDSAT-8) SZA (LANDSAT-8 ) Date (NOAA-19) Time (NOAA-19) Lat,Lon (NOAA-19) SZA (NOAA-19 ) Distance(km) Time Diff (sec)
1 02/11/2023 07:25:41 -80.93, -74.51 83.59 02/11/2023 07:25:31 -80.92, -74.65 83.61 2.61 10
2 02/13/2023 12:59:22 80.93, 22.15 95.69 02/13/2023 12:58:15 80.92, 22.27 95.67 2.44 67
3 02/13/2023 13:48:49 -80.93,-170.26 84.34 02/13/2023 13:49:11 -80.92,-170.35 84.34 1.69 22
4 02/15/2023 19:22:30 80.92, -73.85 94.89 02/15/2023 19:21:56 80.92, -73.74 94.89 2.15 34
5 02/15/2023 20:11:57 -80.92, 93.75 85.14 02/15/2023 20:12:51 -80.92, 93.87 85.10 2.25 54
6 02/18/2023 01:45:36 80.94,-169.38 94.14 02/18/2023 01:45:36 80.92,-169.47 94.12 2.13 0
7 02/20/2023 07:19:17 -80.91, -73.12 86.70 02/20/2023 07:18:13 -80.93, -72.98 86.70 2.88 64
8 02/20/2023 08:08:42 80.94, 94.86 93.35 02/20/2023 08:09:16 80.92, 94.69 93.33 3.36 34
9 02/22/2023 13:42:22 -80.92,-168.74 87.49 02/22/2023 13:41:52 -80.92,-168.64 87.49 1.85 30
10 02/22/2023 14:31:48 80.92, -1.13 92.50 02/22/2023 14:32:56 80.92, -1.25 92.52 2.16 68



Historial Predications of SNOs between LANDSAT-8 and NOAA-19
